Date,TemperatureHighF,TemperatureAvgF,TemperatureLowF,DewpointHighF,DewpointAvgF,DewpointLowF,HumidityHigh,HumidityAvg,HumidityLow,PressureMaxIn,PressureMinIn,WindSpeedMaxMPH,WindSpeedAvgMPH,GustSpeedMaxMPH,PrecipitationSumIn
2013-1-1,50.7,48.8,46.0,26.5,16.0,6.9,41,28,19,30.03,29.82,7,1,8,0.60
2013-1-2,56.3,51.0,48.4,33.7,26.4,19.2,48,39,29,30.00,29.79,4,0,5,0.00
2013-1-3,55.2,47.5,39.2,25.3,19.2,10.3,38,32,26,30.18,29.97,5,1,7,0.00
2013-1-4,57.2,41.6,30.6,14.3,7.6,0.2,33,25,17,30.21,30.09,7,2,8,0.00
2013-1-5,51.1,41.2,31.1,10.0,3.7,-2.4,23,21,18,30.26,30.12,5,1,6,0.00
2013-1-6,59.4,47.1,40.3,17.5,9.7,3.4,28,22,17,30.12,29.91,8,2,13,0.00
2013-1-7,59.7,43.6,32.0,14.7,6.2,-0.3,30,21,17,30.26,30.09,7,1,9,0.00
2013-1-8,53.8,43.3,31.3,15.2,7.1,-1.7,30,23,18,30.32,30.21,4,0,5,0.00
2013-1-9,66.6,56.1,49.5,25.4,16.8,8.8,31,21,17,30.32,30.24,4,0,5,0.00
2013-1-10,70.9,58.8,48.9,36.6,23.8,15.1,41,28,14,30.35,30.21,7,0,7,0.00
2013-1-11,57.9,55.8,54.5,35.6,31.7,23.2,46,40,27,30.21,30.03,4,0,7,0.44
2013-1-12,71.1,60.9,55.9,50.8,37.1,30.2,52,42,27,30.06,29.97,5,0,7,0.00
2013-1-13,67.3,60.3,55.4,44.7,37.9,33.4,48,44,37,30.03,29.94,4,0,5,0.00
2013-1-14,66.0,62.9,60.1,48.4,44.5,38.6,56,51,45,30.00,29.94,6,0,9,0.88
2013-1-15,62.6,57.8,51.3,46.6,41.7,34.2,57,55,52,30.00,29.91,5,1,6,0.40
2013-1-16,55.9,52.6,49.8,37.5,34.6,32.4,52,50,48,29.91,29.85,4,0,4,0.16
2013-1-17,55.2,51.3,40.5,37.9,33.2,21.8,52,50,47,30.09,29.62,7,1,10,1.64
2013-1-18,56.8,42.5,33.3,26.1,13.7,0.4,48,33,17,30.35,30.09,5,1,7,0.00
2013-1-19,57.7,41.7,30.7,18.8,7.8,2.0,36,25,17,30.35,30.09,7,1,8,0.00
2013-1-20,67.3,47.9,33.4,18.4,8.9,0.4,30,21,15,30.09,29.91,9,1,10,0.00
2013-1-21,64.4,45.2,32.2,16.1,6.4,-1.7,27,20,15,29.97,29.85,13,2,23,0.00
2013-1-22,50.2,40.3,33.4,9.4,3.1,-1.4,22,21,19,30.12,29.94,13,5,15,0.00
2013-1-23,55.2,41.7,30.2,11.6,3.8,-3.2,23,20,17,30.21,29.97,16,4,18,0.00
2013-1-24,59.4,47.8,32.7,14.5,7.4,-1.8,23,19,17,30.35,29.91,19,5,21,0.00
2013-1-25,33.3,31.5,29.7,3.3,-1.5,-3.6,28,24,23,30.35,29.97,6,1,7,0.00
2013-1-26,57.6,40.8,32.4,22.5,9.6,0.4,39,28,17,30.18,29.97,4,0,5,0.08
2013-1-27,52.9,42.0,32.4,12.5,6.8,2.0,31,24,18,30.41,30.18,7,1,8,0.00
2013-1-28,53.8,47.5,42.8,14.6,8.6,4.4,27,20,18,30.32,30.15,4,0,5,0.00
2013-1-29,68.4,54.8,41.7,31.9,22.5,12.8,36,29,22,30.15,29.88,5,0,7,0.00
2013-1-30,65.7,59.6,47.8,42.6,35.6,21.1,49,41,27,29.91,29.38,11,3,21,1.23
2013-1-31,51.8,43.1,36.7,22.6,6.2,0.4,37,22,18,29.97,29.53,19,7,24,0.00